Flag for United Kingdom Weather past 2 weeks in Brentwood, England, United Kingdom

Now
60 °F

Cool.


Feels Like: 57 °F
Forecast: 51 / 67 °F
Wind: 13 mph from West

Location: Gravesend-Broadness

Current Time: Aug 27, 2015 at 9:08:14 PM

Latest Report: Aug 27, 2015 at 8:00 PM


Visibility: N/A

Pressure: 29.80 "Hg

Humidity: 83%

Dew point: 54 °F

Location of BrentwoodLocation

Historic Weather in Brentwood — Graph

°F

Brentwood temperature yesterday

Maximum temperature yesterday: 68 °F (at 2:00 PM)
Minimum temperature yesterday: 58 °F (at 11:00 PM)
Average temperature yesterday: 64 °F

Past Weeks' High & Low Weather Summary

 TemperatureHumidityPressure
High87 °F (Aug 22, 3:00 PM)100% (Aug 14, 1:00 AM)30.18 "Hg (Aug 14, 1:00 AM)
Low49 °F (Aug 16, 3:00 AM)38% (Aug 22, 2:00 PM)29.38 "Hg (Aug 24, 2:00 PM)
Average64 °F78%29.87 "Hg
* Reported Aug 12 7:00 PM — Aug 27 7:00 PM, Brentwood, Weather by CustomWeather, © 2015

Note: Actual official high and low records may vary slightly from our data, if they occured in-between our weather recording intervals... More about our weather records

Advertising

Brentwood weather history for previous 24 hours

 ConditionsComfort  
Time TempWeatherWind HumidityBarometerVisibility
7:00 PM
Thu, Aug 27
64 °FMild.10 mph63%29.77 "HgN/A
6:00 PM65 °FMild.12 mph63%29.75 "HgN/A
5:00 PM68 °FMild.15 mph54%29.75 "HgN/A
4:00 PM67 °FMild.15 mph58%29.75 "HgN/A
3:00 PM66 °FMild.16 mph58%29.74 "HgN/A
2:00 PM65 °FMild.15 mph60%29.74 "HgN/A
1:00 PM64 °FMild.13 mph65%29.73 "HgN/A
12:00 PM64 °FMild.13 mph66%29.73 "HgN/A
11:00 AM63 °FMild.13 mph74%29.71 "HgN/A
10:00 AM62 °FCool.13 mph80%29.70 "HgN/A
9:00 AM61 °FCool.9 mph85%29.70 "HgN/A
8:00 AM59 °FCool.7 mph88%29.69 "HgN/A
7:00 AM58 °FCool.8 mph90%29.69 "HgN/A
6:00 AM57 °FCool.6 mph90%29.68 "HgN/A
5:00 AM57 °FCool.6 mph91%29.68 "HgN/A
4:00 AM58 °FCool.8 mph92%29.69 "HgN/A
3:00 AM58 °FCool.7 mph92%29.69 "HgN/A
2:00 AM58 °FCool.7 mph91%29.68 "HgN/A
1:00 AM57 °FCool.8 mph93%29.68 "HgN/A
12:00 AM58 °FCool.8 mph91%29.67 "HgN/A
11:00 PM
Wed, Aug 26
58 °FCool.10 mph90%29.67 "HgN/A
9:00 PM59 °FCool.7 mph87%29.65 "HgN/A
Weather by CustomWeather, © 2015

See weather overviewHow to use our weather pages